Starlink 32473

operational
NORAD ID: 62049 Int'l Des: 2024-216 Owner: SPXS Country: US Constellation: starlink
LEOCIRCULAR

关于 Starlink 32473

正在加载描述...

实时位置

正在加载3D地球...

即将过境

高度历史

Altitude vs Time

uPlot chart will show altitude changes over time

两行轨道根数

1 62049U 24216T 25260.08055228 .00017690 00000-0 65182-3 0 9999
2 62049 43.0012 156.8357 0001452 300.3102 59.7606 15.27530056 46163
Epoch: Sep 17, 2025 • Age: 9 hours

当前状态

高度 491.5 km
速度 7.62 km/s
星下点 -33.24°S, 53.05°W
发射日期 Nov 21, 2024
运行时间 0.8 years
类型 internet

技术详情

分类 Payload
质量 730.00 kg
干质量 700.00 kg
总质量 730.00 kg
长度 0.30 m
直径 4.10 m
跨度 29.00 m
形状 Box + pan
制造商 SPXS
平台类型 Starlink V2M
阶段状态 In Orbit
所有者/国家 SPXS/US

大型星座

Loading constellations...